Weather History for Montauk, NY

Change the Weather History Date:

Monday, August 19, 2013

  Actual Average (KHTO) Record (KHTO)
Temperature  
Mean Temperature 70 °F -  
Max Temperature 78 °F 78 °F 88 °F (1956)
Min Temperature 62 °F 61 °F 49 °F (1963)
Cooling Degree Days 5    
Growing Degree Days 20 (Base 50)    
Moisture  
Dew Point 63 °F    
Average Humidity 77    
Maximum Humidity 90    
Minimum Humidity 58    
Precipitation  
Precipitation 0.01 in - - ()
Sea Level Pressure  
Sea Level Pressure 30.07 in    
Wind  
Wind Speed 4 mph (WSW)    
Max Wind Speed 9 mph    
Max Gust Speed -    
Averages and records for this station are not official NWS values.
T = Trace of Precipitation, MM = Missing Value Source: NWS Daily Summary

Daily Weather History Graph

Daily Weather History Graph

Search for Another Location

Airport:

Trip Planner

Search our weather history database for the weather conditions in past years. The results will help you decide how hot, cold, wet, or windy it might be!

Date:

Astronomy

Aug. 19, 2013 Rise Set
Actual Time 6:01 AM EDT 7:40 PM EDT
Civil Twilight 5:32 AM EDT 8:09 PM EDT
Nautical Twilight 4:56 AM EDT 8:44 PM EDT
Astronomical Twilight 4:19 AM EDT 9:22 PM EDT
Moon 6:29 PM EDT 4:16 AM EDT
Length of Visible Light 14h 37m
Length of Day
13h 38m
Waxing Gibbous, 97% of the Moon is Illuminated
Aug 19
Waxing Gibbous
Aug 20
Full
Aug 28
Last Quarter
Sep 5
New
Sep 12
First Quarter

Hourly Weather History & Observations

Time (EDT) Temp. Dew Point Humidity Pressure Visibility Wind Dir Wind Speed Gust Speed Precip Events Conditions
12:54 AM 62.1 °F 59.0 °F 90% 30.12 in - Calm Calm - N/A   Unknown
1:54 AM 64.0 °F 60.1 °F 87% 30.11 in - Calm Calm - N/A   Unknown
2:54 AM 63.0 °F 60.1 °F 90% 30.11 in - SW 3.5 mph - N/A   Unknown
3:54 AM 64.0 °F 60.1 °F 87% 30.11 in - WSW 3.5 mph - N/A   Unknown
4:54 AM 64.0 °F 60.1 °F 87% 30.10 in - WSW 5.8 mph - N/A   Unknown
5:54 AM 64.9 °F 60.1 °F 84% 30.11 in - WSW 5.8 mph - N/A   Unknown
6:54 AM 66.0 °F 62.1 °F 87% 30.10 in - WSW 5.8 mph - N/A   Unknown
7:54 AM 68.0 °F 63.0 °F 84% 30.10 in - WSW 6.9 mph - N/A   Unknown
8:54 AM 69.1 °F 63.0 °F 81% 30.09 in - West 8.1 mph - N/A   Unknown
9:54 AM 72.0 °F 64.9 °F 78% 30.08 in - West 8.1 mph - N/A   Unknown
10:54 AM 73.9 °F 64.0 °F 71% 30.08 in - West 9.2 mph - N/A   Unknown
11:54 AM 75.9 °F 62.1 °F 62% 30.06 in - WSW 5.8 mph - N/A   Unknown
12:54 PM 78.1 °F 63.0 °F 60% 30.06 in - WSW 9.2 mph - N/A   Unknown
1:54 PM 77.0 °F 61.0 °F 58% 30.05 in - WSW 8.1 mph - N/A   Unknown
2:54 PM 77.0 °F 61.0 °F 58% 30.04 in - SW 5.8 mph - N/A   Unknown
3:54 PM 75.0 °F 64.9 °F 71% 30.02 in - WSW 5.8 mph - N/A   Unknown
4:54 PM 73.9 °F 64.9 °F 73% 30.03 in - SW 4.6 mph - N/A   Unknown
5:54 PM 73.0 °F 64.9 °F 76% 30.03 in - SW 4.6 mph - N/A   Unknown
6:54 PM 73.0 °F 64.9 °F 76% 30.04 in - SW 4.6 mph - N/A   Unknown
7:54 PM 72.0 °F 64.0 °F 76% 30.03 in - SW 4.6 mph - N/A   Unknown
9:54 PM 72.0 °F 64.0 °F 76% 30.05 in - WSW 5.8 mph - N/A   Unknown
10:54 PM 70.0 °F 64.0 °F 81% 30.05 in - WSW 4.6 mph - 0.01 in   Unknown
11:54 PM 69.1 °F 64.0 °F 84% 30.05 in - Variable 4.6 mph - N/A   Unknown